#timestamp,LO_Frequency,Hit,StdDev 
1567202415.7,286046998.1,N
1567202435.5,286047001.0,N
1567202455.3,286047001.0,N
1567202475.2,286047002.4,N
1567202495.0,286047000.1,N
1567202495.9,286047000.1,N
1567202515.7,286047001.2,N
1567202535.6,286046998.6,N
1567202555.4,286046998.8,N
1567202575.2,286047000.8,N
1567202595.1,286046999.6,N
1567202596.0,286046999.6,N
1567202615.8,286046999.5,N
1567202635.6,286046999.2,N
1567202655.5,286046998.7,N
1567202675.3,286046999.3,N
1567202695.1,286046999.2,N
1567202715.9,286046996.8,Y
1567202735.7,286046995.4,P
1567202755.5,286046997.7,N
1567202775.4,286046998.9,N
1567202795.2,286046998.5,N
1567202815.0,286046997.0,N
1567202815.9,286046997.0,N
1567202835.8,286046996.6,N
1567202855.6,286046998.7,N
1567202875.4,286046998.1,N
1567202895.3,286046999.9,N
1567202915.1,286046999.9,N
1567202935.8,286046999.0,N
1567202955.7,286046998.3,N
1567202975.5,286047000.7,N
1567202995.3,286047000.4,N
1567203015.2,286046999.3,N
1567203035.0,286046996.9,N
1567203035.9,286046996.9,N
1567203055.7,286046998.6,N
1567203075.6,286046999.4,N
1567203095.4,286046996.5,N
1567203115.2,286046997.1,N
1567203135.1,286046998.7,N
1567203136.0,286046998.7,N
1567203155.8,286046999.3,N
1567203175.6,286046998.5,N
1567203195.5,286046999.0,N
1567203215.3,286046996.9,N
1567203235.1,286046999.3,N
1567203255.9,286046998.8,N
1567203275.7,286046998.4,N
1567203295.5,286046998.9,N
1567203315.4,286047000.8,N
1567203335.2,286047000.1,N
1567203355.0,286047000.5,N
1567203355.9,286047000.5,N
1567203375.8,286047000.9,N
1567203395.6,286047001.2,N
1567203415.4,286046998.3,N
1567203435.3,286047001.0,N
1567203455.1,286046998.6,N
1567203475.8,286047001.2,N
1567203495.7,286046998.6,N
1567203515.5,286046998.3,N
1567203535.3,286046999.3,N
1567203555.2,286046996.5,N
1567203575.0,286046999.2,N
1567203575.9,286046999.2,N
1567203595.7,286046998.8,N
1567203615.6,286047000.3,N
1567203635.4,286047000.9,N
1567203655.2,286047001.0,N
1567203675.1,286046999.9,N
1567203676.0,286046999.9,N
1567203695.8,286047000.2,N
1567203715.6,286047000.6,N
1567203735.5,286047000.3,N
1567203755.3,286047001.2,N
1567203775.1,286047000.7,N
1567203795.9,286047000.7,N
1567203815.7,286047000.1,N
1567203835.5,286047001.3,N
1567203855.4,286047004.2,Y
1567203875.2,286047004.2,P
1567203895.0,286047002.2,N
1567203895.9,286047002.2,N
1567203915.8,286047002.3,N
1567203935.6,286047001.8,N
1567203955.4,286047002.1,N
1567203975.3,286047001.8,N
1567203995.1,286047001.5,N
1567204015.8,286047000.3,N
1567204035.7,286047002.0,N
1567204055.5,286047004.4,Y
1567204075.3,286047001.0,P
1567204095.2,286047000.8,N
1567204115.0,286046998.1,P
1567204115.9,286046998.1,N
1567204135.7,286047000.3,N
1567204155.6,286047000.3,N
1567204175.4,286047002.8,N
1567204195.2,286047000.6,N
1567204215.1,286047000.9,N
1567204216.0,286047000.9,N
1567204235.8,286047000.9,N
1567204255.6,286046999.1,N
1567204275.5,286046998.9,N
1567204295.3,286046998.6,N
1567204315.1,286046998.6,N
1567204335.9,286046998.4,N
1567204355.7,286046998.9,N
1567204375.5,286046998.7,N
1567204395.4,286046999.9,N
1567204415.2,286047001.2,N
1567204435.0,286047000.9,N
1567204435.9,286047000.9,N
1567204455.8,286047001.2,N
1567204475.6,286047000.0,N
1567204495.4,286047002.8,N
1567204515.3,286047001.9,N
1567204535.1,286047002.6,N
1567204555.8,286047001.0,N
1567204575.7,286046999.4,N
1567204595.5,286046998.1,N
1567204615.3,286047000.8,N
1567204635.2,286046999.9,N
1567204655.0,286047000.1,N
1567204655.9,286047000.1,N
1567204675.7,286047002.8,N
1567204695.6,286047000.6,N
1567204715.4,286046998.5,N
1567204735.2,286046998.8,N
1567204755.1,286047000.6,N
1567204756.0,286047000.6,N
1567204775.8,286046998.7,N
1567204795.6,286047000.8,N
1567204815.5,286047001.2,N
1567204835.3,286046999.7,N
1567204855.1,286046999.8,N
1567204875.9,286047000.4,N
1567204895.7,286047000.3,N
1567204915.5,286047001.2,N
1567204935.4,286047001.1,N
1567204955.2,286046998.7,N
1567204975.0,286046998.2,N
1567204975.9,286046998.2,N
1567204995.8,286046998.8,N
1567205015.6,286046996.5,N
1567205035.4,286046997.2,N
1567205055.3,286046998.7,N
1567205075.1,286046998.9,N
1567205095.8,286046999.2,N
1567205115.7,286046998.3,N
1567205135.5,286046998.8,N
1567205155.3,286046997.1,N
1567205175.2,286046996.7,N
1567205195.0,286046997.2,N
1567205195.9,286046997.2,N
1567205215.7,286046999.1,N
1567205235.6,286046999.4,N
1567205255.4,286046997.8,N
1567205275.2,286046997.5,N
1567205295.1,286046999.4,N
1567205296.0,286046999.4,N
1567205315.8,286046997.3,N
1567205335.6,286046996.8,N
1567205355.5,286046996.9,N
1567205375.3,286046999.4,N
1567205395.1,286046998.5,N
1567205415.9,286046999.1,N
1567205435.7,286046998.6,N
1567205455.5,286046996.5,Y
1567205475.4,286046998.4,P
1567205495.2,286046998.8,P
1567205515.0,286046999.1,P
1567205516.0,286046999.1,Y
1567205535.8,286047000.8,P
1567205555.6,286047001.1,N
1567205575.4,286047001.0,N
1567205595.3,286047000.2,N
1567205615.1,286047002.2,N
1567205635.8,286047000.1,N
1567205655.7,286046999.7,N
1567205675.5,286047002.3,N
1567205695.3,286047002.4,N
1567205715.2,286047002.2,N
1567205735.0,286047002.1,N
1567205735.9,286047002.1,N
1567205755.7,286047002.2,N
1567205775.6,286047001.7,N
1567205795.4,286047004.3,Y
1567205815.3,286047002.5,P
1567205835.1,286047000.2,N
1567205836.0,286047000.2,N
1567205855.8,286047002.7,N
1567205875.7,286047001.9,N
1567205895.5,286047002.6,N
1567205915.3,286047002.8,N
1567205935.2,286046999.9,N
1567205955.9,286047000.7,N
1567205975.7,286046998.5,N
1567205995.6,286046998.3,N
